STARLINK-32682, 62196

Orbit data source: Space-Track

STARLINK-32682, 62196 is a payload satellite owned by SpaceX/Seattle (US) in LEO that was launched on Wed, 04 Dec 2024 UTC via an FALCON 9 launch vehicle from the Air Force Eastern Test Range (AFETR). Payload-class satellites include a variety of spacecraft equipped with specific instruments for various scientific and technological missions. These include communications satellites like Starlink; space stations such as the ISS; scientific satellites like the Hubble; Earth observation satellites from companies like Planet Labs, Umbra, and HawkEye 360; GPS; miniature CubeSats for education and research; and military/defense satellites.

Loading next visibility...
Identifier
62196, 2024-229E
Orbit
LEO
Country
Flag of USUS
Related business
Manufacturer
SpaceX/Seattle
Mission
Operational Commercial Communications
Bus & Motor
STARLINK V2M, Unknown motor
Mass
730 kg wet, ~700 kg dry
Launch date (UTC)
2024-12-04 (2 years ago)
Launch vehicle
FALCON 9
Launch site
Air Force Eastern Test Range (AFETR)
Object type
Payload
Rocket body
Debris
Shape & HBR
Box + 2 Pan, 17.7 m
Radar Cross Section
33.884 m², Large (>1 m²)

Expand to show TLE details & history
Last TLE update: 20 hours ago

TLE from 20 hours ago
0 STARLINK-32682
1 62196U 24229E   26171.01484386  .00024751  00000-0  90507-3 0  9997
2 62196  43.0014  20.1674 0002188 286.0258  74.0353 15.27610353 86580
Epoch: 2026-06-20T00:21Z
TLE epoch observation values (Epoch: 2026-06-20T00:21:22.509Z)
Latitude
0.00001°
Longitude
106.58808°
Altitude
482.321 km
Speed
7.626 km/s
True Right ascension
01h 20m 40s
True Declination
0° 00' 00"
Sunlit
Object was in daylight at epoch
Visualization orbit readout
Latitude
Unknown
Longitude
Unknown
Altitude
Unknown
Speed
Unknown
Apparent Right ascension
Unknown
Apparent Declination
Unknown
Sunlit
N/A
Visualization observer readout
Local Sidereal Time
07:21:20
Azimuth
Unknown
Elevation
Unknown
Doppler factor
Unknown
Orbital elements
Apogee altitude
486.405 km
Perigee altitude
483.402 km
Semi-major axis
6,863.04 km
Eccentricity
0.00022
Inclination
43.0014°
RAAN
20.1674°
Arg. of periapsis
286.0258°
True anomaly
74.05941°
Mean anomaly
74.0353°
Eccentric anomaly
74.04735°
Mean motion
3.81741 °/min
Orbital period
94.3 mins
BSTAR
0.00090507
Loading maneuver chart data...
Computing Atmospheric mass density...
Loading historical data...
Loading historical data...
Loading historical data...
Loading historical data...
Loading historical data...
Loading historical data...
Loading historical data...

Documentation

Showing up to 5 results
|